COSMOS 341

Satellite information

Favourite Embed

Satellite Type and Status

PAYLOADIN ORBIT

Key statistics

Satellite COSMOS 341 at a glance.

Uptime

20284

Days in orbit

Revolutions

≈ 12.6

Per day

Orbit

LEO

Low Earth Orbit

Inclination

74.0

Latest

Satellite identification and parameters

Extended collection of information and parameters for COSMOS 341.

Object identification

Identified? True

Debris? False

Object name: COSMOS 341

International designator: 1970-036F

Object number (NORAD): 4388

Object ID (CCSDS): 4388

Country: COMMONWEALTH OF INDEPENDENT STATES (CIS)

Current information (Y/N): Y

RCS size: MEDIUM

Orbital parameters

Period: 113.893 minutes

Inclination: 74.0271 deg

SMA: 7783.187 km

Apoapsis: 1467.718 km

Periapsis: 1342.387 km

RAAN: 164.9124 deg

Eccentricy: 0.0080514

Argument of periapsis: 119.2548 deg

Mean anomaly: 253.0399 deg

Mean motion: 12.64347758 rev/day

Mean motion (dot): 0.00000018 rev/day2

B* drag term: 0.00018374 1/REarth

Two-line elements (TLE)

Creation date: Nov. 4, 2025, 11:56 p.m.

Reference frame: TEME

Reference center: EARTH

Epoch: Nov. 4, 2025, 9:25 p.m. UTC

TLE line 0: 0 COSMOS 341

TLE line 1: 1 4388U 70036F 25308.89246874 .00000018 00000-0 18374-3 0 9990

TLE line 2: 2 4388 74.0271 164.9124 0080514 119.2548 253.0399 12.64347758562574

Live tracking on map

Real-time ground track for satellite COSMOS 341.

In-orbit conjunctions

A list of the most updated potential collisions computed for object COSMOS 341.

Target Orbit TCA Probability of collision Miss distance Type
DELTA 1 DEB SSO 2025-04-09 09:40:24 0.0002105174 763.0 (m) DEBRIS
DELTA 1 DEB SSO 2024-05-29 04:31:47 0.0001443021 843.0 (m) DEBRIS

Associated space launch

Military communications satellites

COSMOS 341 was lifted into orbit during the mission ‘Kosmos-3M | Strela-1M 1-8’, on board a Kosmos-3M space rocket.

The launch took place on April 25, 1970, 5:09 p.m. from 132/2.

For more information about the launch, click the button.

Launch to space Kosmos-3M | Strela-1M 1-8
Kosmos-3M | Strela-1M 1-8

Agency: N/A

Status: Launch Successful

Launch date: April 25, 1970, 5:09 p.m. UTC

Rocket: Kosmos-3M

Launch pad: 132/2

Location: Plesetsk Cosmodrome, Russian Federation

...

Latest news about this satellite

There are no fresh news available about this satellite. Check back as we update our databases every day.


Newsletter sign-up

Weekly statistics, charts and insights to help you stay on top of the space industry.